Погода в Горнореченске

Россия / Ханты-Мансийский автономный округ - Югра     61°47′21″N   67°36′02″E
темп.,
°C
ветер,
м/с
пор.,
м/с
влажн.,
%
обл.,
%
осадки,
мм/ч
давл.,
гПа
погр.,
м
20 апреля, вт
вт2023:00−7юз3777100 0.0 1030137
02:00−6юз61478100 0.0 1027383
05:00−5зюз7147799 0.0 1024402
08:00−1з81580100 0.0 1020791
11:00+2зсз81581100 0.1 1019795
14:00+5сз9147992 0.0 10191101
17:00+5ссз7137158 0.1 10201013
20:00+1ссз5108112 0.0 1022202
21 апреля, ср
ср2123:00−1ссз369148 0.0 1024102
02:00−1ссв249185 0.0 102679
05:00−3св239532 0.0 102941
08:000всв23725 0.0 1030266
11:00+3ююз11628 0.0 1032691
14:00+4юз226426 0.0 1033713
17:00+4ю116885 0.0 1034324
20:00+2ююв227892 0.0 103520
22 апреля, чт
чт2223:00+2ююв357696 0.0 103691
02:000ююв478227 0.0 1036133
05:00−1ююв488299 0.0 1037147
08:00+3ю587063 0.0 1037326
11:00+7ю68595 0.0 1036842
14:00+9ю795515 0.0 10351305
17:00+10ю79545 0.0 10341308
20:00+7ююв6126394 0.0 1034280
23 апреля, пт
пт2323:00+5ююв71372100 0.0 1033312
02:00+4ююв6137599 0.0 1032314
05:00+3ююв61279100 0.0 1031274
08:00+6ю6117299 0.0 1031468
11:00+10ююз7958100 0.0 1031955
14:00+11юз61056100 0.0 10301570
17:00+9ююз61269100 0.1 10311317
20:00+8юз51077100 0.3 1030670
24 апреля, сб
сб2423:00+7юз1386100 0.6 103096
02:00+6юв2392100 0.6 102966
05:00+6ю4892100 1.9 1028318
08:00+6ю3791100 1.0 1027309
11:00+5ю2592100 1.5 1027291
14:00+6ююз2390100 0.2 1027256
17:00+8ююв2379100 0.2 1027453
20:00+6юв2388100 0.3 102665